Location: Unspecified
(0.0000°N, 0.0000°E)
Time: 23:40:40
(UTC+00:00)

deb Snapshot - Visible Passes

Search period start: 17 May 2026 00:00
Search period end: 27 May 2026 00:00
Orbit: 1235 x 1276 km, 90.3° (Epoch: 16 May)

Date Brightness Start Highest point End Pass type
(mag) Time Alt. Az. Time Alt. Az. Time Alt. Az.
24 May ? 21:41:36 10° N 21:41:44 11° N 21:41:44 11° N visible
25 May ? 21:40:32 10° N 21:40:56 12° N 21:40:56 12° N visible
26 May ? 21:39:28 10° N 21:40:10 13° N 21:40:10 13° N visible
